Weather at London Heathrow Airport

Public forecast

Using degrees Celsius for public forecast. Weather courtesy of forecast.io.

Current aviation weather report (METAR) for London Heathrow Airport

Retrieved 2022/05/23 08:50 UTC (25 minutes ago):

EGLL 230850Z AUTO 31005KT 250V360 9999 FEW017 16/11 Q1002 NOSIG

Aviation forecast (TAF) for London Heathrow Airport

Retrieved 2022/05/23 06:00 UTC (3 hours ago):

TAF EGLL 230458Z 2306/2412 30005KT 9999 SCT040 PROB30 TEMPO 2309/2313 7000 RA TEMPO 2317/2412 7000 SHRA PROB30 TEMPO 2400/2412 4000 +SHRA PROB30 TEMPO 2400/2407 BKN013